Glasgow, United Kingdom

4:59 PM BST on June 27, 2017 (GMT +0100)
Glasgow

Weather History for EGPF - December, 2011

Change the Weather History Date:

Saturday, December 3, 2011

  Actual Average Record
Temperature  
Mean Temperature 42 °F -  
Max Temperature 46 °F 43 °F 51 °F (2006)
Min Temperature 37 °F 33 °F 8 °F (2010)
Degree Days  
Heating Degree Days 22    
Moisture  
Dew Point 36 °F    
Average Humidity 80    
Maximum Humidity 87    
Minimum Humidity 70    
Precipitation  
Precipitation 0.00 in - - ()
Sea Level Pressure  
Sea Level Pressure 29.30 in    
Wind  
Wind Speed 15 mph ()    
Max Wind Speed 24 mph    
Max Gust Speed 38 mph    
Visibility 5.5 miles    
Events Rain    
Averages and records for this station are not official NWS values.
T = Trace of Precipitation, MM = Missing Value Source: Averaged Metar Reports

Daily Weather History Graph

Daily Weather History Graph

Search for Another Location

Airport or City:

Trip Planner

Search our weather history database for the weather conditions in past years. The results will help you decide how hot, cold, wet, or windy it might be!

Date:

Astronomy

Dec. 03, 2011 Rise Set
Actual Time 8:26 AM GMT 3:48 PM GMT
Civil Twilight 7:40 AM GMT 4:33 PM GMT
Nautical Twilight 6:52 AM GMT 5:21 PM GMT
Astronomical Twilight 6:08 AM GMT 6:06 PM GMT
Moon 12:45 PM GMT (12/3) 12:36 AM GMT (12/3)
Length of Visible Light 8h 52m
Length of Day
7h 21m
First Quarter, 60% of the Moon is Illuminated
Dec 3
First Quarter
Dec 10
Full
Dec 18
Last Quarter
Dec 24
New
Jan 1
First Quarter

Hourly Weather History & Observations

Time (GMT) Temp. Windchill Dew Point Humidity Pressure Visibility Wind Dir Wind Speed Gust Speed Precip Events Conditions
12:20 AM 46.4 °F 40.1 °F 39.2 °F 76% 29.21 in 5.6 mi West 15.0 mph - N/A   Scattered Clouds
12:50 AM 46.4 °F 39.5 °F 39.2 °F 76% 29.24 in 5.0 mi West 17.3 mph 33.4 mph N/A Rain Light Rain
1:20 AM 44.6 °F 37.2 °F 39.2 °F 81% 29.21 in - West 17.3 mph - N/A   Clear
1:50 AM 44.6 °F 37.8 °F 39.2 °F 81% 29.21 in 6.2 mi West 15.0 mph - N/A Rain Light Rain
2:20 AM 44.6 °F 35.7 °F 37.4 °F 76% 29.21 in 6.2 mi West 24.2 mph - N/A   Partly Cloudy
2:50 AM 44.6 °F 35.7 °F 37.4 °F 76% 29.24 in 3.7 mi West 24.2 mph 38.0 mph N/A Rain Light Rain
3:20 AM 42.8 °F 34.8 °F 37.4 °F 81% 29.21 in 6.2 mi West 17.3 mph - N/A   Scattered Clouds
3:50 AM 44.6 °F 36.1 °F 39.2 °F 81% 29.24 in 1.7 mi West 21.9 mph 35.7 mph N/A Rain Heavy Rain
4:20 AM 42.8 °F 35.4 °F 35.6 °F 76% 29.24 in 5.0 mi West 15.0 mph - N/A Rain Rain
4:50 AM 42.8 °F 34.8 °F 37.4 °F 81% 29.21 in 6.2 mi West 17.3 mph - N/A Rain Light Rain
5:20 AM 42.8 °F 35.1 °F 35.6 °F 76% 29.24 in 6.2 mi West 16.1 mph 28.8 mph N/A   Mostly Cloudy
5:50 AM 42.8 °F 34.5 °F 33.8 °F 70% 29.24 in 6.2 mi WNW 18.4 mph - N/A   Mostly Cloudy
6:20 AM 42.8 °F 35.1 °F 35.6 °F 76% 29.27 in 6.2 mi WNW 16.1 mph - N/A   Mostly Cloudy
6:50 AM 42.8 °F 34.3 °F 33.8 °F 70% 29.27 in 6.2 mi West 19.6 mph 31.1 mph N/A   Scattered Clouds
7:20 AM 42.8 °F 34.5 °F 33.8 °F 70% 29.27 in 6.2 mi West 18.4 mph 29.9 mph N/A   Scattered Clouds
7:50 AM 42.8 °F 34.8 °F 33.8 °F 70% 29.30 in 6.2 mi NW 17.3 mph - N/A   Scattered Clouds
8:20 AM 39.2 °F 31.6 °F 35.6 °F 87% 29.33 in 6.2 mi WNW 12.7 mph - N/A   Scattered Clouds
8:50 AM 39.2 °F 33.6 °F 33.8 °F 81% 29.33 in 6.2 mi WSW 8.1 mph - N/A   Scattered Clouds
9:20 AM 42.8 °F 36.2 °F 33.8 °F 70% 29.33 in 6.2 mi West 12.7 mph - N/A   Scattered Clouds
9:50 AM 42.8 °F 35.8 °F 33.8 °F 70% 29.33 in 6.2 mi West 13.8 mph - N/A   Scattered Clouds
10:20 AM 42.8 °F 35.1 °F 35.6 °F 76% 29.33 in 6.2 mi West 16.1 mph 27.6 mph N/A Rain Light Rain Showers
10:50 AM 41.0 °F 32.8 °F 35.6 °F 81% 29.36 in 5.6 mi WNW 16.1 mph 28.8 mph N/A Rain Light Rain Showers
11:20 AM 41.0 °F 33.5 °F 37.4 °F 87% 29.33 in 6.2 mi WSW 13.8 mph - N/A Rain Light Rain Showers
11:50 AM 41.0 °F 33.1 °F 37.4 °F 87% 29.36 in 3.7 mi WNW 15.0 mph - N/A Rain Rain Showers
12:20 PM 42.8 °F 35.4 °F 37.4 °F 81% 29.33 in 4.3 mi West 15.0 mph - N/A Rain Light Rain Showers
12:50 PM 42.8 °F 36.2 °F 37.4 °F 81% 29.33 in 6.2 mi West 12.7 mph - N/A   Scattered Clouds
1:20 PM 41.0 °F 34.3 °F 37.4 °F 87% 29.33 in 2.5 mi WNW 11.5 mph - N/A Rain Rain Showers
1:50 PM 41.0 °F 32.2 °F 37.4 °F 87% 29.33 in 3.7 mi West 18.4 mph 31.1 mph N/A Rain Rain Showers
2:20 PM 41.0 °F 33.5 °F 37.4 °F 87% 29.33 in 2.5 mi West 13.8 mph 25.3 mph N/A Rain Rain Showers
2:50 PM 42.8 °F 34.8 °F 37.4 °F 81% 29.30 in 6.2 mi West 17.3 mph - N/A   Scattered Clouds
3:20 PM 42.8 °F 34.5 °F 37.4 °F 81% 29.33 in 3.1 mi West 18.4 mph - N/A Rain Rain Showers
3:50 PM 41.0 °F 34.3 °F 37.4 °F 87% 29.33 in 5.6 mi West 11.5 mph - N/A   Scattered Clouds
4:20 PM 42.8 °F 35.8 °F 37.4 °F 81% 29.33 in 6.2 mi West 13.8 mph - N/A   Mostly Cloudy
4:50 PM 41.0 °F 33.5 °F 35.6 °F 81% 29.33 in 6.2 mi West 13.8 mph - N/A   Mostly Cloudy
5:20 PM 41.0 °F 33.5 °F 35.6 °F 81% 29.33 in 6.2 mi WNW 13.8 mph - N/A Rain Light Rain
5:50 PM 41.0 °F 33.5 °F 35.6 °F 81% 29.33 in 6.2 mi West 13.8 mph - N/A   Scattered Clouds
6:20 PM 41.0 °F 32.5 °F 35.6 °F 81% 29.33 in 6.2 mi West 17.3 mph - N/A   Scattered Clouds
6:50 PM 41.0 °F 32.5 °F 35.6 °F 81% 29.33 in 6.2 mi West 17.3 mph - N/A   Mostly Cloudy
7:20 PM 41.0 °F 32.8 °F 35.6 °F 81% 29.33 in 6.2 mi WNW 16.1 mph 28.8 mph N/A   Mostly Cloudy
7:50 PM 41.0 °F 31.6 °F 33.8 °F 76% 29.33 in 6.2 mi West 20.7 mph - N/A Rain Light Rain
8:20 PM 41.0 °F 33.1 °F 33.8 °F 76% 29.33 in 6.2 mi West 15.0 mph - N/A Rain Light Rain
8:50 PM 39.2 °F 29.8 °F 35.6 °F 87% 29.33 in 5.0 mi West 18.4 mph 29.9 mph N/A Rain Light Rain
9:20 PM 39.2 °F 30.2 °F 33.8 °F 81% 29.33 in 6.2 mi West 17.3 mph 36.8 mph N/A   Scattered Clouds
9:50 PM 39.2 °F 30.2 °F 35.6 °F 87% 29.36 in 6.2 mi WSW 17.3 mph - N/A   Scattered Clouds
10:20 PM 39.2 °F 30.2 °F 33.8 °F 81% 29.36 in 6.2 mi West 17.3 mph - N/A Rain Light Rain
10:50 PM 39.2 °F 30.8 °F 33.8 °F 81% 29.36 in 3.7 mi West 15.0 mph - N/A Rain Light Rain
11:20 PM 39.2 °F 34.2 °F 35.6 °F 87% 29.36 in 6.2 mi West 6.9 mph - N/A Rain Light Rain
11:50 PM 37.4 °F 29.3 °F 33.8 °F 87% 29.39 in 4.3 mi WNW 12.7 mph - N/A Rain Rain